Location: Gwatt
(46.7204°N, 7.6223°E)
Time: 00:16:11
(UTC+00:00)

Transit 2A - Pass Details

Date: 22 January 2021
Orbit: 601 x 958 km, 66.7° (Epoch: 07 March)

Event Time Altitude Azimuth Distance (km) Brightness Sun altitude
Rises 03:32:49 0° 199° (SSW) 3,520 - -36.0°
Reaches altitude 10° 03:35:27 10° 196° (SSW) 2,540 - -35.5°
Maximum altitude 03:41:12 58° 118° (ESE) 960 - -34.6°
Exits shadow 03:43:01 39° 61° (ENE) 1,195 7.3 -34.2°
Drops below altitude 10° 03:46:28 10° 41° (NE) 2,323 9.0 -33.7°
Sets 03:48:46 0° 37° (NE) 3,197 9.8 -33.3°
